Location: East Irvine
(33.6759°N, 117.7598°W)
Time: 23:01:25
(UTC+00:00)

Cosmos 1763 Rocket - Pass Details

Date: 15 November 2025
Orbit: 728 x 774 km, 74.0° (Epoch: 13 December)

Event Time Altitude Azimuth Distance (km) Brightness Sun altitude
Rises 02:15:41 0° 344° (NNW) 3,226 6.8 -18.3°
Reaches altitude 10° 02:18:05 10° 346° (NNW) 2,290 6.0 -18.8°
Maximum altitude 02:23:16 77° 73° (ENE) 771 3.3 -19.8°
Drops below altitude 10° 02:28:22 10° 159° (SSE) 2,246 5.8 -20.9°
Sets 02:30:41 0° 161° (SSE) 3,159 6.6 -21.3°
